Location: Bremen
(53.0793°N, 8.8017°E)
Time: 21:16:12
(UTC+01:00)

S-56A Canister/Altair - Pass Details

Date: 01 December 2021
Orbit: 634 x 2499 km, 38.9° (Epoch: 26 January)

Event Time Altitude Azimuth Distance (km) Brightness Sun altitude
Rises 01:49:29 0° 226° (SW) 4,486 - -53.8°
Reaches altitude 10° 01:53:54 10° 210° (SSW) 3,131 - -53.4°
Maximum altitude 01:58:35 18° 171° (S) 2,208 - -52.9°
Drops below altitude 10° 02:02:23 10° 129° (SE) 2,453 - -52.5°
Sets 02:05:17 0° 109° (ESE) 3,193 - -52.2°
